Vasileios Stafylidis

Olheiro-Chefe - AEK
22 Fev 2028
Terça-feira
Processo

Personalidade

Adaptabilidade (9) Ambição (3) Controvérsia (5) Lealdade (5) Pressão (10) Profissionalismo (10) Espírito Esportivo (18) Temperamento (8)

Perfil

Estilo de Treinamento Democrático
Licença Nacional A
Determinação 8
Gestão de Pessoas 6
Motivação 5
Disciplina 5
Satisfação no Trabalho
89%
Fadiga
0%
Função Olheiro-Chefe
Salário 16.9K p/s
Contrato 14.03.2028

Desempenho

Comportamento Bom
Eficácia do Treinamento
46%
Desenvolvimento do Jogador
55%
Prevenção de Lesões
70%
Implementação Tática
75%

Eventos Recentes

Negociação de contrato iniciada agora
Participou de uma reunião de recrutamento agora
Negociação de contrato iniciada 7d atrás
Negociação de contrato iniciada 7d atrás
Negociação de contrato iniciada 7d atrás
Negociação de contrato iniciada 7d atrás
Negociação de contrato iniciada 7d atrás
Negociação de contrato iniciada 7d atrás

Monitorando agora

301
Jogador Clube Status Habilidade Confiança Observado Última observação Último voto
Kevin Paredes River Plate Ativo 121 / 128 40% 3 31.01.2028 -
Raúl Asencio Las Palmas Ativo 154 / 147 40% 3 31.01.2028 -
Luiz Henrique Club America Ativo 142 / 143 68% 1 24.01.2028 Aprovar
Adam Wharton Crystal Palace Ativo 163 / 163 40% 2 18.01.2028 -
Mateo Mendoza Godoy Cruz Ativo 123 / 138 40% 2 18.01.2028 -
Javi Guerra Valencia Ativo 167 / 164 40% 1 12.01.2028 -
Samuel Gidi FC Cincinnati Ativo 138 / 125 40% 1 12.01.2028 -
Braian Aranda Agropecuario Argentino Ativo 130 / 120 40% 1 08.01.2028 -
Ralph Orquin Seattle Sounders Ativo 141 / 115 40% 2 07.01.2028 -
Abdukodir Khusanov Coventry City Ativo 146 / 154 40% 1 06.01.2028 -
Roméo Lavia Blackburn Rovers Ativo 167 / 159 40% 1 06.01.2028 -
Nicolás Romero Minnesota United FC Ativo 139 / 147 40% 2 05.01.2028 -
Daniel Herrera San Lorenzo Ativo 106 / 128 40% 1 05.01.2028 -
Aaron Leya Iseka OFI Ativo 122 / 118 55% 1 04.01.2028 -
Samuel Velásquez Atletico Nacional Ativo 134 / 131 40% 2 03.01.2028 -
Samuel Lucero Defensa y Justicia Ativo 103 / 124 40% 2 03.01.2028 -
Fernando Álvarez Deportivo Cali Ativo 117 / 105 40% 1 03.01.2028 -
Jhon Durán Al-Nassr Ativo 140 / 144 40% 5 30.12.2027 -
Nəriman Axundzadə Columbus Crew Ativo 115 / 125 40% 4 29.12.2027 -
Nicolò Tresoldi Club Brugge Ativo 136 / 127 40% 1 29.12.2027 -
Ezekiel Kwame Alladoh Philadelphia Union Ativo 130 / 115 40% 5 28.12.2027 -
Ruben van Bommel Ferencvaros Ativo 129 / 146 40% 8 28.12.2027 -
Yassir Zabiri Stade Rennais Ativo 145 / 138 40% 5 27.12.2027 -
Armindo Sieb Los Angeles Football Club Ativo 116 / 125 40% 5 23.12.2027 -
Richard Koné Queens Park Rangers Ativo 137 / 133 40% 8 23.12.2027 -
Jorge Pascual Valencia Ativo 137 / 150 40% 1 22.12.2027 -
Dennis Gjengaar Valerenga Ativo 105 / 107 40% 1 22.12.2027 -
Daniel Karlsbakk Sarpsborg 08 Ativo 131 / 132 40% 5 20.12.2027 -
Elias Hoff Melkersen Stromsgodset Ativo 132 / 121 40% 5 19.12.2027 -
Nathan Ordaz Metalist Ativo 114 / 122 40% 4 16.12.2027 -
Sebastian Clemmensen Halmstad Ativo 120 / 103 40% 2 16.12.2027 -
Felipe Augusto Zenit Ativo 126 / 137 40% 5 15.12.2027 -
Agustín Módica Gimnasia y Esgrima Ativo 107 / 132 40% 4 14.12.2027 -
Luca Williams-Barnett Tranmere Rovers Ativo 123 / 125 40% 1 14.12.2027 -
Luca Koleosho Paris FC Ativo 148 / 126 40% 1 12.12.2027 -
Lucas Piton Vasco da Gama Ativo 152 / 138 40% 3 10.12.2027 -
Santiago Ramos Mingo Bahia Ativo 149 / 137 40% 2 10.12.2027 -
Maxence Lacroix Everton Ativo 158 / 165 40% 1 09.12.2027 -
Agustín Ruberto River Plate Ativo 114 / 137 40% 4 08.12.2027 -
Adrian Svanbäck BK Hacken Ativo 115 / 137 40% 3 08.12.2027 -
Mathías Villasanti Grêmio Ativo 121 / 133 40% 1 06.12.2027 -
Fran García Betis Ativo 150 / 151 40% 2 04.12.2027 -
Emerson Royal Flamengo Ativo 133 / 136 40% 2 04.12.2027 -
Brooke Norton-Cuffy Inter Miami CF Ativo 133 / 145 40% 6 03.12.2027 -
Yvan Neyou Getafe Ativo 142 / 142 40% 1 01.12.2027 -
Karim Konaté Red Bull Salzburg Ativo 131 / 145 40% 4 28.11.2027 -
Sergio Gómez Real Sociedad Ativo 147 / 157 40% 1 26.11.2027 -
Caio Alexandre Bahia Ativo 147 / 147 40% 2 25.11.2027 -
Alexandro Bernabei Internacional Ativo 148 / 125 40% 3 25.11.2027 -
Hércules Fluminense Ativo 119 / 144 40% 3 24.11.2027 -
Ismaël Bennacer Malmo FF Ativo 144 / 138 40% 2 22.11.2027 -
Ştefan Baiaram Universitatea Craiova Ativo 130 / 125 40% 3 21.11.2027 -
Bryan Ramírez FC Cincinnati Ativo 137 / 128 40% 1 21.11.2027 -
Matheus Henrique Cruzeiro Ativo 137 / 134 40% 1 21.11.2027 -
Vitinho Botafogo Ativo 144 / 136 40% 1 20.11.2027 -
Alejo Veliz Bahia Ativo 129 / 131 40% 2 19.11.2027 -
Sota Kitano Luzern Ativo 143 / 141 40% 2 19.11.2027 -
Lucas Sanabria LA Galaxy Ativo 119 / 140 40% 1 18.11.2027 -
Léo Ortiz Flamengo Ativo 123 / 150 40% 1 16.11.2027 -
Lucas Paquetá Flamengo Ativo 155 / 133 40% 2 13.11.2027 -
Guilherme Arana Fluminense Ativo 121 / 141 40% 1 11.11.2027 -
Teboho Mokoena Independiente Ativo 131 / 147 40% 1 11.11.2027 -
Marcus Holmgren Pedersen Valerenga Ativo 119 / 129 40% 2 09.11.2027 -
Cauan Barros Vasco da Gama Ativo 122 / 130 40% 1 09.11.2027 -
Juan Ignacio Nardoni Grêmio Ativo 133 / 136 40% 2 05.11.2027 -
Andreas Hanche-Olsen DC United Ativo 119 / 144 40% 1 04.11.2027 -
Danilo Botafogo Ativo 125 / 152 40% 1 02.11.2027 -
Bruno Gomes Internacional Ativo 130 / 129 40% 1 01.11.2027 -
Arthur Santos Ativo 144 / 126 40% 4 30.10.2027 -
Kauã Elias Anderlecht Ativo 135 / 132 40% 1 29.10.2027 -
Aníbal Moreno River Plate Ativo 119 / 122 40% 3 25.10.2027 -
Paulo Henrique Vasco da Gama Ativo 130 / 120 40% 3 25.10.2027 -
Santiago Sosa Vasco da Gama Ativo 145 / 137 40% 1 23.10.2027 -
Sergio Reguilón Inter Miami CF Ativo 124 / 127 40% 2 19.10.2027 -
Ayrton Costa Boca Juniors Ativo 117 / 143 40% 1 18.10.2027 -
Thierno Barry Norwich City Ativo 150 / 137 40% 2 14.10.2027 -
Ante Crnac Rotherham United Ativo 132 / 132 40% 1 14.10.2027 -
Youssoufa Moukoko FC Copenhagen Ativo 114 / 145 40% 4 13.10.2027 -
Miles Leaburn Exeter City Ativo 135 / 138 40% 2 13.10.2027 -
Patrick Berg Bodo/Glimt Ativo 137 / 136 40% 2 10.10.2027 -
Davide Calabria Olympique de Marseille Ativo 148 / 134 40% 1 10.10.2027 -
Miles Robinson FC Cincinnati Ativo 124 / 135 40% 1 09.10.2027 -
Renan Lodi Atlético Mineiro Ativo 124 / 144 40% 1 07.10.2027 -
Fabrício Bruno Cruzeiro Ativo 120 / 143 40% 1 06.10.2027 -
Siyabonga Mabena Chippa United Ativo 113 / 133 40% 1 26.09.2027 -
Vinko Rozić Istra 1961 Ativo 131 / 121 40% 4 25.09.2027 -
Pablo Felipe West Ham United Ativo 126 / 151 40% 2 23.09.2027 -
William Osula Wrexham Ativo 148 / 123 40% 1 23.09.2027 -
Liam Delap Nottingham Forest Ativo 138 / 160 40% 2 22.09.2027 -
Tom Cannon Sheffield United Ativo 135 / 142 40% 1 21.09.2027 -
Jalal Abdullai Molde Ativo 100 / 110 40% 1 17.09.2027 -
Babis Kostoulas Brighton Ativo 135 / 149 40% 3 13.09.2027 -
Tomás Nasif River Plate Ativo 107 / 133 40% 1 12.09.2027 -
Mateus Mané Manchester United Ativo 146 / 136 40% 1 11.09.2027 -
Mohamed Touré Wycombe Wanderers Ativo 130 / 135 40% 1 10.09.2027 -
Bénie Traoré New York City Ativo 127 / 118 40% 8 03.09.2027 -
Yaroslav Gladyshev Dinamo Moscow Ativo 120 / 121 40% 6 03.09.2027 -
Mateo Castillo Millonarios Ativo 144 / 130 40% 2 23.08.2027 -
Kelvin Flórez Atletico Bucaramanga Ativo 106 / 114 40% 1 22.08.2027 -
Ariel Gamarra Cerro Porteno Ativo 113 / 114 40% 1 21.08.2027 -
Ahmed Qasem Nashville SC Ativo 122 / 119 40% 1 21.08.2027 -
Lorenzo Ignacchiti Empoli Ativo 127 / 120 40% 4 19.08.2027 -
Nicolò Radaelli Mantova Ativo 136 / 123 40% 2 18.08.2027 -
Kian Fitz-Jim Torino Ativo 150 / 140 40% 1 15.08.2027 -
Romano Floriani Mussolini Avellino Ativo 117 / 142 40% 2 14.08.2027 -
Telasco Segovia Inter Miami CF Ativo 136 / 135 40% 1 13.08.2027 -
Quinn Sullivan Philadelphia Union Ativo 136 / 125 40% 1 12.08.2027 -
Rareş Ilie Mantova Ativo 135 / 131 40% 1 10.08.2027 -
Lucas Carrizo Plaza Colonia Ativo 100 / 108 40% 1 10.08.2027 -
Caylan Vickers Burton Albion Ativo 101 / 107 40% 1 09.08.2027 -
Tyler Goodrham Oxford United Ativo 143 / 140 40% 5 08.08.2027 -
Othmane Maamma Watford Ativo 116 / 136 40% 7 08.08.2027 -
Juan Mosquera Sheffield Wednesday Ativo 119 / 141 40% 4 07.08.2027 -
Justin Devenny Stoke City Ativo 136 / 133 40% 5 07.08.2027 -
Tyreece Campbell Charlton Athletic Ativo 116 / 119 40% 3 06.08.2027 -
Jayden Nelson Bolton Wanderers Ativo 124 / 111 40% 1 06.08.2027 -
Mduduzi Shabalala Kaizer Chiefs Ativo 120 / 114 40% 4 05.08.2027 -
Ilyas Ansah Hull City Ativo 130 / 126 40% 8 05.08.2027 -
Bosun Lawal Stoke City Ativo 120 / 143 40% 5 04.08.2027 -
Toby Collyer West Bromwich Albion Ativo 135 / 127 40% 2 04.08.2027 -
Cian Ashford Cardiff City Ativo 124 / 134 40% 3 03.08.2027 -
Michael Cooper Sheffield United Ativo 120 / 124 40% 1 02.08.2027 -
Cher Ndour Fiorentina Ativo 139 / 143 40% 4 01.08.2027 -
Ethan Williams Peterborough United Ativo 126 / 127 40% 4 01.08.2027 -
Aidomo Emakhu Oxford United Ativo 128 / 118 40% 2 31.07.2027 -
Chem Campbell Stevenage Ativo 121 / 109 40% 1 28.07.2027 -
Jacques Ekomié Wrexham Ativo 121 / 130 40% 2 26.07.2027 -
George Earthy Reading Ativo 116 / 123 40% 3 25.07.2027 -
Oscar Schwartau Norwich City Ativo 130 / 121 40% 1 25.07.2027 -
Ryan Trevitt Cambridge United Ativo 118 / 133 40% 2 24.07.2027 -
Kellen Fisher Norwich City Ativo 141 / 132 40% 3 23.07.2027 -
Christos Mouzakitis Hull City Ativo 141 / 151 40% 5 21.07.2027 -
Dale Taylor Blackpool Ativo 114 / 120 40% 1 21.07.2027 -
Lewis Bate Stockport County Ativo 122 / 134 40% 2 19.07.2027 -
Femi Seriki Sheffield United Ativo 121 / 137 40% 4 15.07.2027 -
Stiven Shpendi Empoli Ativo 127 / 127 40% 2 15.07.2027 -
José Martínes CSKA 1948 Ativo 124 / 120 40% 3 13.07.2027 -
Ben Chrisene Norwich City Ativo 125 / 112 40% 1 10.07.2027 -
Alex Lowry Wycombe Wanderers Ativo 105 / 129 40% 3 08.07.2027 -
Nazar Voloshyn Dynamo Kyiv Ativo 124 / 131 40% 1 08.07.2027 -
Stanley Mills Oxford United Ativo 118 / 125 40% 4 07.07.2027 -
Isaac Price West Bromwich Albion Ativo 125 / 131 40% 2 04.07.2027 -
Andre Brooks Sheffield United Ativo 121 / 134 40% 1 03.07.2027 -
Jack McGlynn Stoke City Ativo 139 / 141 40% 5 01.07.2027 -
Fer López Wolverhampton Ativo 148 / 147 40% 4 25.06.2027 -
Kwadwo Baah Watford Ativo 130 / 140 40% 2 24.06.2027 -
Alex Robertson Cardiff City Ativo 132 / 110 40% 1 22.06.2027 -
Majid Beiranvand Rah Ahan Ativo 101 / 118 40% 2 21.06.2027 -
David Romero Parma Ativo 115 / 125 40% 1 21.06.2027 -
Abdul Fatawu Leicester City Ativo 143 / 146 40% 2 19.06.2027 -
Habib Diarra Sunderland Ativo 158 / 149 40% 8 15.06.2027 -
Facundo Kruspzky Al Wahda Ativo 107 / 110 40% 1 15.06.2027 -
Stefanos Tzimas Brighton Ativo 153 / 146 40% 2 14.06.2027 -
Tomáš Rigo Stoke City Ativo 117 / 143 40% 2 08.06.2027 -
Nobel Mendy Hull City Ativo 123 / 129 40% 3 30.05.2027 -
Leif Davis Ipswich Town Ativo 150 / 131 40% 5 29.05.2027 -
Brian De Keersmaecker Oxford United Ativo 128 / 117 40% 2 29.05.2027 -
Tom Fellows Southampton Ativo 149 / 139 40% 1 29.05.2027 -
Williams Manyama SuperSport United Ativo 125 / 120 40% 5 27.05.2027 -
Teden Mengi Luton Town Ativo 120 / 120 40% 3 26.05.2027 -
Charlie Webster Burton Albion Ativo 111 / 110 40% 3 25.05.2027 -
Florentino Luís Ipswich Town Ativo 144 / 130 40% 9 24.05.2027 -
Darlin Yongwa Norwich City Ativo 134 / 132 40% 1 24.05.2027 -
Ronnie Edwards Queens Park Rangers Ativo 121 / 142 40% 2 22.05.2027 -
Caleb Yirenkyi Coventry City Ativo 151 / 129 40% 1 21.05.2027 -
Aidan Morris Middlesbrough Ativo 115 / 141 40% 5 19.05.2027 -
Aaron Morley Wycombe Wanderers Ativo 130 / 115 40% 1 19.05.2027 -
Ethan Galbraith Swansea City Ativo 117 / 120 40% 10 18.05.2027 -
Tommy Conway Middlesbrough Ativo 121 / 137 40% 1 17.05.2027 -
George Wickens Lincoln City Ativo 113 / 120 40% 1 15.05.2027 -
Bento Al-Nassr Ativo 141 / 123 40% 1 15.05.2027 -
Jerónimo Pourtau Talleres Ativo 102 / 114 40% 1 14.05.2027 -
Ilario Monterisi Frosinone Ativo 138 / 138 40% 1 13.05.2027 -
Mandla Erasmus SuperSport United Ativo 111 / 118 40% 7 10.05.2027 -
Dennis Cirkin Queens Park Rangers Ativo 115 / 126 40% 6 09.05.2027 -
Victor Torp Coventry City Ativo 124 / 130 40% 1 09.05.2027 -
Alfie Doughty Millwall Ativo 116 / 127 40% 1 08.05.2027 -
Jacob Greaves Ipswich Town Ativo 151 / 126 40% 1 08.05.2027 -
Cédric Don Maccabi Haifa Ativo 136 / 117 40% 1 07.05.2027 -
Max Bird Birmingham Ativo 136 / 137 40% 8 06.05.2027 -
James Morris Leyton Orient Ativo 114 / 111 40% 1 06.05.2027 -
Kristoffer Lund Birmingham Ativo 142 / 116 40% 4 02.05.2027 -
Sam Bell Bristol City Ativo 117 / 130 40% 1 02.05.2027 -
Welington Southampton Ativo 149 / 133 40% 9 01.05.2027 -
Andrea Carboni Monza Ativo 117 / 118 40% 1 01.05.2027 -
Tariq Lamptey Queens Park Rangers Ativo 152 / 131 40% 2 29.04.2027 -
Harrison Burrows Sheffield United Ativo 143 / 128 40% 1 29.04.2027 -
Nicolas Madsen Queens Park Rangers Ativo 118 / 139 40% 1 27.04.2027 -
Ollie Tanner Cardiff City Ativo 111 / 125 40% 1 26.04.2027 -
Ethan Pye Stockport County Ativo 135 / 117 40% 2 25.04.2027 -
Radek Vítek Middlesbrough Ativo 141 / 135 40% 2 23.04.2027 -
Georgie Gent Barnsley Ativo 122 / 106 40% 1 23.04.2027 -
Derry Murkin Derby County Ativo 115 / 139 40% 4 20.04.2027 -
Andre Dozzell Doncaster Rovers Ativo 134 / 120 40% 1 18.04.2027 -
Will Smallbone Southampton Ativo 117 / 122 40% 1 17.04.2027 -
Josh Tymon Swansea City Ativo 126 / 130 40% 2 13.04.2027 -
Caolan Boyd-Munce Wycombe Wanderers Ativo 105 / 109 40% 2 13.04.2027 -
Bobby Thomas Coventry City Ativo 118 / 120 40% 4 11.04.2027 -
Oliver Skipp Leicester City Ativo 133 / 130 40% 5 09.04.2027 -
Zak Swanson Bradford City Ativo 115 / 122 40% 1 09.04.2027 -
Shea Charles Southampton Ativo 118 / 135 40% 4 06.04.2027 -
Lukáš Červ Viktoria Plzen Ativo 135 / 126 40% 1 06.04.2027 -
Jordan Zemura Udinese Ativo 148 / 127 40% 1 06.04.2027 -
Jack Currie Oxford United Ativo 137 / 126 40% 1 05.04.2027 -
Andrei Coubiş Lincoln City Ativo 115 / 116 40% 1 04.04.2027 -
Idris El Mizouni Leyton Orient Ativo 101 / 116 40% 1 02.04.2027 -
Filippo Ranocchia Palermo Ativo 147 / 124 40% 4 30.03.2027 -
Nadir Zortea Bologna Ativo 149 / 135 40% 3 30.03.2027 -
Tommaso Pobega Bologna Ativo 156 / 150 40% 1 30.03.2027 -
Adilson Malanda Middlesbrough Ativo 130 / 123 40% 2 27.03.2027 -
Oumar Solet Udinese Ativo 153 / 138 40% 2 26.03.2027 -
Álvaro Carrillo APOEL Ativo 121 / 114 40% 2 26.03.2027 -
Mirko Topić Norwich City Ativo 136 / 116 40% 1 24.03.2027 -
Daniil Khudyakov Sturm Graz Ativo 114 / 117 40% 1 24.03.2027 -
Christian Krasnodar Ativo 137 / 142 40% 3 22.03.2027 -
Emanuel Aiwu Apollon Ativo 126 / 116 40% 1 18.03.2027 -
Anel Ahmedhodžić Burnley Ativo 120 / 146 40% 3 17.03.2027 -
Pelle Mattsson Norwich City Ativo 118 / 121 40% 1 16.03.2027 -
Bali Mumba Huddersfield Town Ativo 115 / 116 40% 1 15.03.2027 -
Milan van Ewijk Mansfield Town Ativo 115 / 124 40% 1 08.03.2027 -
Oleksandr Saputin Poltava Ativo 108 / 125 40% 2 03.03.2027 -
James Trafford Leeds United Ativo 152 / 154 40% 1 03.03.2027 -
Edoardo Bove Watford Ativo 116 / 125 40% 2 28.02.2027 -
Niklas Steffen Thun Ativo 119 / 118 40% 3 28.02.2027 -
Lukas Jensen Millwall Ativo 120 / 131 40% 1 24.02.2027 -
Harry Clarke Preston Ativo 116 / 115 40% 2 23.02.2027 -
Adam Randell Bristol City Ativo 116 / 136 40% 1 23.02.2027 -
Dara O'Shea Ipswich Town Ativo 145 / 122 40% 2 22.02.2027 -
James Garner Everton Ativo 164 / 139 40% 1 21.02.2027 -
Sondre Langås Derby County Ativo 131 / 119 40% 1 21.02.2027 -
Marlon Gomes Shakhtar Ativo 130 / 141 40% 3 16.02.2027 -
Lucas Lund Viborg Ativo 126 / 127 40% 1 14.02.2027 -
Robin Roefs Sunderland Ativo 162 / 145 40% 2 08.02.2027 -
Fedor Lapoukhov CSKA Sofia Ativo 108 / 125 40% 1 08.02.2027 -
Callum Doyle Wrexham Ativo 112 / 142 40% 2 29.01.2027 -
Mateusz Kochalski Dynamo Kyiv Ativo 128 / 124 40% 1 28.01.2027 -
Lewis Ferguson Bologna Ativo 144 / 150 40% 1 26.01.2027 -
Luis Ingolotti Atlético Tucumán Ativo 125 / 134 40% 1 26.01.2027 -
John Pulskamp Sporting Kansas City Ativo 135 / 102 40% 1 26.01.2027 -
Grégoire Coudert Burnley Ativo 116 / 120 40% 1 23.01.2027 -
Álex Centelles Levski Ativo 125 / 118 40% 1 22.01.2027 -
Petar Stanić Ludogorets Ativo 144 / 130 40% 1 19.01.2027 -
Japhet Tanganga Sheffield United Ativo 125 / 128 40% 1 10.01.2027 -
Lucas Da Cunha Como Ativo 155 / 145 40% 1 08.01.2027 -
Joe Gelhardt Hull City Ativo 112 / 118 40% 2 02.01.2027 -
Stanislav Agkatsev Sunderland Negociando 132 / 133 66% 1 01.01.2027 Aprovar
Ognjen Ožegović Levadiakos Ativo 109 / 115 51% 1 01.01.2027 -
Milán Tóth Vasas Ativo 98 / 114 40% 1 27.12.2026 -
David Ankeye Zeleznicar Pancevo Ativo 120 / 121 40% 4 24.12.2026 -
Dom Ballard Leyton Orient Ativo 125 / 119 40% 2 23.12.2026 -
Jason Knight Bristol City Ativo 112 / 117 40% 1 23.12.2026 -
Scott Twine Bristol City Ativo 133 / 125 40% 1 23.12.2026 -
Shahriar Dejagah Tractor Ativo 111 / 131 40% 7 22.12.2026 -
Eren Aydın Zira Ativo 115 / 100 40% 2 22.12.2026 -
Will Lankshear Middlesbrough Ativo 105 / 121 40% 1 16.12.2026 -
Renato Júnior Al Wasl Ativo 129 / 113 40% 3 13.12.2026 -
Malik Mothersille Stockport County Ativo 99 / 112 40% 1 12.12.2026 -
Abu Kamara Portsmouth Ativo 107 / 108 40% 1 11.12.2026 -
Charalabos Charalabous Aris Ativo 103 / 127 40% 1 04.12.2026 -
Ebrima Singhateh Jablonec Ativo 109 / 108 40% 1 01.12.2026 -
Alan Velasco Boca Juniors Ativo 129 / 142 40% 1 29.11.2026 -
Tomás González Piast Ativo 104 / 113 40% 2 28.11.2026 -
Víctor Ríos Atlas Ativo 92 / 109 40% 1 28.11.2026 -
Yacine Adli Al-Shabab Ativo 146 / 141 40% 1 28.11.2026 -
Ihor Krasnopir Polissia Ativo 126 / 109 40% 6 25.11.2026 -
Berna CSKA 1948 Ativo 110 / 107 40% 1 21.11.2026 -
Karim Karimi Siah Jamegan Ativo 129 / 101 40% 1 20.11.2026 -
Theo Corbeanu Toronto FC Ativo 133 / 135 40% 3 19.11.2026 -
Paulos Abraham Hammarby Ativo 126 / 108 40% 1 18.11.2026 -
Prosper Obah Shakhtar Ativo 120 / 120 40% 3 17.11.2026 -
Manuel Mónaco Sarmiento Ativo 134 / 109 40% 1 14.11.2026 -
Alexander Aravena Portland Timbers Ativo 111 / 138 40% 2 13.11.2026 -
Rajmund Molnár Pogon Ativo 108 / 115 40% 1 13.11.2026 -
Misael Sosa Godoy Cruz Ativo 95 / 104 40% 1 12.11.2026 -
Maurits Kjærgaard Red Bull Salzburg Ativo 126 / 133 40% 2 07.11.2026 -
Matheus Nascimento FC Dallas Ativo 107 / 125 40% 4 05.11.2026 -
Jonás Luna Santa Clara Ativo 134 / 132 40% 5 05.11.2026 -
Jake Davis Sporting Kansas City Ativo 105 / 122 40% 1 30.10.2026 -
Alasana Yirajang AS Trencin Ativo 121 / 114 40% 2 28.10.2026 -
Alexandru Cicaldau Pandurii Ativo 111 / 114 40% 1 28.10.2026 -
Lévy Néne FC Nordsjaelland Ativo 128 / 127 40% 1 26.10.2026 -
Crysencio Summerville Al-Hilal Ativo 157 / 137 40% 1 26.10.2026 -
David Kalokoh Ajax Ativo 130 / 119 40% 1 21.10.2026 -
Gustavo Puerta Olympiacos Ativo 132 / 144 40% 2 19.10.2026 -
Luciano Gondou CSKA Moscow Ativo 127 / 129 40% 1 18.10.2026 -
Tomás Chancalay Minnesota United FC Ativo 109 / 125 40% 1 17.10.2026 -
Reda Khadra Qarabag Ativo 111 / 142 40% 1 17.10.2026 -
Hélio Varela Maccabi Tel Aviv Ativo 118 / 127 40% 1 12.10.2026 -
Ibrahim Aliyu Houston Dynamo Ativo 103 / 118 40% 2 11.10.2026 -
Siyanda Ndlovu Bloemfontein Celtic Ativo 107 / 112 40% 1 02.10.2026 -
Bohdan Viunnyk Lechia Ativo 118 / 102 40% 1 02.10.2026 -
Kevin Kelsy Portland Timbers Ativo 112 / 112 40% 1 01.10.2026 -
Vladislav Blănuţă Lechia Ativo 104 / 107 40% 2 26.09.2026 -
Jeong Sang-Bin St. Louis CITY SC Ativo 96 / 122 40% 3 21.09.2026 -
Bongani Modiba Black Aces Ativo 107 / 120 40% 1 21.09.2026 -
Amin Boudri Los Angeles Football Club Ativo 134 / 135 40% 1 13.09.2026 -
Tio Cipot NK Maribor Ativo 106 / 127 40% 1 08.09.2026 -
Dimitris Giannoulis PAOK Ativo 119 / 136 40% 1 24.08.2026 -
Yves Bissouma Tottenham Ativo 145 / 129 40% 1 24.08.2026 -
Giannis Apostolakis OFI Perdido 103 / 113 51% 1 17.08.2026 Observar
Haris Tabaković Red Bull Salzburg Ativo 152 / 124 40% 1 10.08.2026 -